Year,Month,Day,Hour,Minute,Value (Times are PST for temperature in C)
2016,07,20,00,00,15.40
2016,07,20,00,01,15.40
2016,07,20,00,02,15.40
2016,07,20,00,03,15.40
2016,07,20,00,04,15.40
2016,07,20,00,05,15.40
2016,07,20,00,06,15.30
2016,07,20,00,07,15.30
2016,07,20,00,08,15.30
2016,07,20,00,09,15.30
2016,07,20,00,10,15.30
2016,07,20,00,11,15.30
2016,07,20,00,12,15.30
2016,07,20,00,13,15.30
2016,07,20,00,14,15.20
2016,07,20,00,15,15.20
2016,07,20,00,16,15.20
2016,07,20,00,17,15.20
2016,07,20,00,18,15.20
2016,07,20,00,19,15.20
2016,07,20,00,20,15.10
2016,07,20,00,21,15.10
2016,07,20,00,22,15.10
2016,07,20,00,23,15.10
2016,07,20,00,24,15.10
2016,07,20,00,25,15.10
2016,07,20,00,26,15.10
2016,07,20,00,27,15.00
2016,07,20,00,28,15.00
2016,07,20,00,29,15.00
2016,07,20,00,30,15.00
2016,07,20,00,31,15.00
2016,07,20,00,32,15.00
2016,07,20,00,33,14.90
2016,07,20,00,34,14.90
2016,07,20,00,35,14.90
2016,07,20,00,36,14.90
2016,07,20,00,37,14.90
2016,07,20,00,38,15.00
2016,07,20,00,39,15.00
2016,07,20,00,40,15.00
2016,07,20,00,41,15.00
2016,07,20,00,42,15.00
2016,07,20,00,43,14.90
2016,07,20,00,44,14.90
2016,07,20,00,45,14.90
2016,07,20,00,46,14.90
2016,07,20,00,47,14.90
2016,07,20,00,48,14.90
2016,07,20,00,49,14.90
2016,07,20,00,50,14.90
2016,07,20,00,51,14.90
2016,07,20,00,52,14.90
2016,07,20,00,53,14.90
2016,07,20,00,54,14.90
2016,07,20,00,55,14.80
2016,07,20,00,56,14.80
2016,07,20,00,57,14.80
2016,07,20,00,58,14.80
2016,07,20,00,59,14.80
2016,07,20,01,00,14.80
2016,07,20,01,01,14.80
2016,07,20,01,02,14.80
2016,07,20,01,03,14.80
2016,07,20,01,04,14.80
2016,07,20,01,05,14.70
2016,07,20,01,06,14.70
2016,07,20,01,07,14.70
2016,07,20,01,08,14.70
2016,07,20,01,09,14.70
2016,07,20,01,10,14.70
2016,07,20,01,11,14.60
2016,07,20,01,12,14.50
2016,07,20,01,13,14.50
2016,07,20,01,14,14.40
2016,07,20,01,15,14.40
2016,07,20,01,16,14.40
2016,07,20,01,17,14.30
2016,07,20,01,18,14.30
2016,07,20,01,19,14.30
2016,07,20,01,20,14.30
2016,07,20,01,21,14.30
2016,07,20,01,22,14.30
2016,07,20,01,23,14.30
2016,07,20,01,24,14.20
2016,07,20,01,25,14.20
2016,07,20,01,26,14.20
2016,07,20,01,27,14.20
2016,07,20,01,28,14.20
2016,07,20,01,29,14.20
2016,07,20,01,30,14.10
2016,07,20,01,31,14.10
2016,07,20,01,32,14.10
2016,07,20,01,33,14.10
2016,07,20,01,34,14.10
2016,07,20,01,35,14.10
2016,07,20,01,36,14.10
2016,07,20,01,37,14.10
2016,07,20,01,38,14.10
2016,07,20,01,39,14.10
2016,07,20,01,40,14.00
2016,07,20,01,41,14.00
2016,07,20,01,42,14.00
2016,07,20,01,43,14.00
2016,07,20,01,44,14.00
2016,07,20,01,45,13.90
2016,07,20,01,46,13.90
2016,07,20,01,47,13.90
2016,07,20,01,48,13.90
2016,07,20,01,49,13.90
2016,07,20,01,50,13.90
2016,07,20,01,51,13.90
2016,07,20,01,52,13.90
2016,07,20,01,53,13.90
2016,07,20,01,54,13.90
2016,07,20,01,55,13.90
2016,07,20,01,56,13.90
2016,07,20,01,57,13.90
2016,07,20,01,58,13.90
2016,07,20,01,59,13.90
2016,07,20,02,00,13.90
2016,07,20,02,01,13.90
2016,07,20,02,02,13.90
2016,07,20,02,03,13.90
2016,07,20,02,04,13.90
2016,07,20,02,05,13.90
2016,07,20,02,06,13.90
2016,07,20,02,07,13.90
2016,07,20,02,08,13.90
2016,07,20,02,09,13.90
2016,07,20,02,10,13.90
2016,07,20,02,11,13.90
2016,07,20,02,12,13.90
2016,07,20,02,13,13.90
2016,07,20,02,14,13.80
2016,07,20,02,15,13.80
2016,07,20,02,16,13.80
2016,07,20,02,17,13.80
2016,07,20,02,18,13.80
2016,07,20,02,19,13.80
2016,07,20,02,20,13.80
2016,07,20,02,21,13.80
2016,07,20,02,22,13.80
2016,07,20,02,23,13.70
2016,07,20,02,24,13.70
2016,07,20,02,25,13.70
2016,07,20,02,26,13.70
2016,07,20,02,27,13.70
2016,07,20,02,28,13.70
2016,07,20,02,29,13.70
2016,07,20,02,30,13.60
2016,07,20,02,31,13.60
2016,07,20,02,32,13.60
2016,07,20,02,33,13.60
2016,07,20,02,34,13.60
2016,07,20,02,35,13.60
2016,07,20,02,36,13.60
2016,07,20,02,37,13.60
2016,07,20,02,38,13.60
2016,07,20,02,39,13.60
2016,07,20,02,40,13.50
2016,07,20,02,41,13.50
2016,07,20,02,42,13.50
2016,07,20,02,43,13.50
2016,07,20,02,44,13.50
2016,07,20,02,45,13.40
2016,07,20,02,46,13.40
2016,07,20,02,47,13.40
2016,07,20,02,48,13.40
2016,07,20,02,49,13.40
2016,07,20,02,50,13.40
2016,07,20,02,51,13.30
2016,07,20,02,52,13.30
2016,07,20,02,53,13.30
2016,07,20,02,54,13.30
2016,07,20,02,55,13.30
2016,07,20,02,56,13.30
2016,07,20,02,57,13.30
2016,07,20,02,58,13.20
2016,07,20,02,59,13.20
2016,07,20,03,00,13.20
2016,07,20,03,01,13.20
2016,07,20,03,02,13.20
2016,07,20,03,06,13.10
2016,07,20,03,07,13.10
2016,07,20,03,08,13.10
2016,07,20,03,09,13.00
2016,07,20,03,10,13.00
2016,07,20,03,11,13.00
2016,07,20,03,12,13.00
2016,07,20,03,13,13.00
2016,07,20,03,14,12.90
2016,07,20,03,15,12.90
2016,07,20,03,16,12.90
2016,07,20,03,17,12.90
2016,07,20,03,18,12.90
2016,07,20,03,19,12.80
2016,07,20,03,20,12.80
2016,07,20,03,21,12.80
2016,07,20,03,22,12.80
2016,07,20,03,23,12.80
2016,07,20,03,24,12.80
2016,07,20,03,25,12.80
2016,07,20,03,26,12.80
2016,07,20,03,27,12.80
2016,07,20,03,28,12.80
2016,07,20,03,29,12.80
2016,07,20,03,30,12.80
2016,07,20,03,31,12.80
2016,07,20,03,32,12.70
2016,07,20,03,33,12.70
2016,07,20,03,34,12.70
2016,07,20,03,35,12.70
2016,07,20,03,36,12.70
2016,07,20,03,37,12.70
2016,07,20,03,38,12.70
2016,07,20,03,39,12.70
2016,07,20,03,40,12.70
2016,07,20,03,41,12.70
2016,07,20,03,42,12.70
2016,07,20,03,43,12.70
2016,07,20,03,44,12.70
2016,07,20,03,45,12.70
2016,07,20,03,46,12.70
2016,07,20,03,47,12.70
2016,07,20,03,48,12.70
2016,07,20,03,49,12.80
2016,07,20,03,50,12.80
2016,07,20,03,51,12.80
2016,07,20,03,52,12.80
2016,07,20,03,53,12.80
2016,07,20,03,54,12.80
2016,07,20,03,55,12.80
2016,07,20,03,56,12.80
2016,07,20,03,57,12.70
2016,07,20,03,58,12.70
2016,07,20,03,59,12.70
2016,07,20,04,00,12.70
2016,07,20,04,01,12.70
2016,07,20,04,02,12.70
2016,07,20,04,03,12.70
2016,07,20,04,04,12.60
2016,07,20,04,05,12.60
2016,07,20,04,06,12.60
2016,07,20,04,07,12.60
2016,07,20,04,08,12.60
2016,07,20,04,09,12.60
2016,07,20,04,10,12.60
2016,07,20,04,11,12.60
2016,07,20,04,12,12.60
2016,07,20,04,13,12.60
2016,07,20,04,14,12.60
2016,07,20,04,15,12.60
2016,07,20,04,16,12.50
2016,07,20,04,17,12.50
2016,07,20,04,18,12.50
2016,07,20,04,19,12.50
2016,07,20,04,20,12.50
2016,07,20,04,21,12.50
2016,07,20,04,22,12.40
2016,07,20,04,23,12.40
2016,07,20,04,24,12.40
2016,07,20,04,25,12.40
2016,07,20,04,26,12.40
2016,07,20,04,27,12.40
2016,07,20,04,28,12.40
2016,07,20,04,29,12.30
2016,07,20,04,30,12.30
2016,07,20,04,31,12.30
2016,07,20,04,32,12.30
2016,07,20,04,33,12.30
2016,07,20,04,34,12.20
2016,07,20,04,35,12.20
2016,07,20,04,36,12.20
2016,07,20,04,37,12.20
2016,07,20,04,38,12.20
2016,07,20,04,39,12.20
2016,07,20,04,40,12.20
2016,07,20,04,41,12.20
2016,07,20,04,42,12.20
2016,07,20,04,43,12.10
2016,07,20,04,44,12.10
2016,07,20,04,45,12.10
2016,07,20,04,46,12.10
2016,07,20,04,47,12.10
2016,07,20,04,48,12.10
2016,07,20,04,49,12.10
2016,07,20,04,50,12.10
2016,07,20,04,51,12.10
2016,07,20,04,52,12.10
2016,07,20,04,53,12.10
2016,07,20,04,54,12.10
2016,07,20,04,55,12.10
2016,07,20,04,56,12.00
2016,07,20,04,57,12.10
2016,07,20,04,58,12.00
2016,07,20,04,59,12.00
2016,07,20,05,00,12.00
2016,07,20,05,01,12.10
2016,07,20,05,02,12.00
2016,07,20,05,03,12.10
2016,07,20,05,04,12.10
2016,07,20,05,05,12.10
2016,07,20,05,06,12.10
2016,07,20,05,07,12.10
2016,07,20,05,08,12.10
2016,07,20,05,09,12.10
2016,07,20,05,10,12.10
2016,07,20,05,11,12.10
2016,07,20,05,12,12.10
2016,07,20,05,13,12.10
2016,07,20,05,14,12.10
2016,07,20,05,15,12.20
2016,07,20,05,16,12.20
2016,07,20,05,17,12.20
2016,07,20,05,18,12.20
2016,07,20,05,19,12.20
2016,07,20,05,20,12.20
2016,07,20,05,21,12.20
2016,07,20,05,22,12.20
2016,07,20,05,23,12.20
2016,07,20,05,24,12.20
2016,07,20,05,25,12.20
2016,07,20,05,26,12.20
2016,07,20,05,27,12.20
2016,07,20,05,28,12.10
2016,07,20,05,29,12.10
2016,07,20,05,30,12.10
2016,07,20,05,31,12.10
2016,07,20,05,32,12.10
2016,07,20,05,33,12.10
2016,07,20,05,34,12.10
2016,07,20,05,35,12.10
2016,07,20,05,36,12.10
2016,07,20,05,37,12.10
2016,07,20,05,38,12.00
2016,07,20,05,39,12.00
2016,07,20,05,40,12.00
2016,07,20,05,41,12.00
2016,07,20,05,42,12.00
2016,07,20,05,43,11.90
2016,07,20,05,44,11.90
2016,07,20,05,45,11.90
2016,07,20,05,46,11.90
2016,07,20,05,47,11.90
2016,07,20,05,48,11.90
2016,07,20,05,49,11.90
2016,07,20,05,50,11.90
2016,07,20,05,51,11.90
2016,07,20,05,52,11.90
2016,07,20,05,53,11.90
2016,07,20,05,54,11.90
2016,07,20,05,55,11.90
2016,07,20,05,56,11.90
2016,07,20,05,57,11.90
2016,07,20,05,58,11.90
2016,07,20,05,59,12.00
2016,07,20,06,00,12.00
2016,07,20,06,01,12.00
2016,07,20,06,02,12.00
2016,07,20,06,03,11.90
2016,07,20,06,04,11.90
2016,07,20,06,05,12.00
2016,07,20,06,06,12.00
2016,07,20,06,07,12.10
2016,07,20,06,08,12.10
2016,07,20,06,09,12.10
2016,07,20,06,10,12.20
2016,07,20,06,11,12.20
2016,07,20,06,12,12.20
2016,07,20,06,13,12.20
2016,07,20,06,14,12.30
2016,07,20,06,15,12.30
2016,07,20,06,16,12.30
2016,07,20,06,17,12.30
2016,07,20,06,18,12.40
2016,07,20,06,19,12.40
2016,07,20,06,20,12.40
2016,07,20,06,21,12.40
2016,07,20,06,22,12.40
2016,07,20,06,23,12.50
2016,07,20,06,24,12.50
2016,07,20,06,25,12.50
2016,07,20,06,26,12.50
2016,07,20,06,27,12.50
2016,07,20,06,28,12.50
2016,07,20,06,29,12.50
2016,07,20,06,30,12.60
2016,07,20,06,31,12.60
2016,07,20,06,32,12.60
2016,07,20,06,33,12.60
2016,07,20,06,34,12.60
2016,07,20,06,35,12.60
2016,07,20,06,36,12.60
2016,07,20,06,37,12.60
2016,07,20,06,38,12.60
2016,07,20,06,39,12.70
2016,07,20,06,40,12.70
2016,07,20,06,41,12.70
2016,07,20,06,42,12.70
2016,07,20,06,43,12.70
2016,07,20,06,44,12.70
2016,07,20,06,45,12.70
2016,07,20,06,46,12.70
2016,07,20,06,47,12.70
2016,07,20,06,48,12.70
2016,07,20,06,49,12.70
2016,07,20,06,50,12.70
2016,07,20,06,51,12.70
2016,07,20,06,52,12.70
2016,07,20,06,53,12.80
2016,07,20,06,54,12.80
2016,07,20,06,55,12.80
2016,07,20,06,56,12.80
2016,07,20,06,57,12.80
2016,07,20,06,58,12.80
2016,07,20,06,59,12.80
2016,07,20,07,00,12.80
2016,07,20,07,01,12.80
2016,07,20,07,02,12.80
2016,07,20,07,03,12.90
2016,07,20,07,04,12.90
2016,07,20,07,05,12.90
2016,07,20,07,06,12.90
2016,07,20,07,07,12.90
2016,07,20,07,08,12.90
2016,07,20,07,09,12.90
2016,07,20,07,10,13.00
2016,07,20,07,11,13.00
2016,07,20,07,12,13.00
2016,07,20,07,13,13.00
2016,07,20,07,14,13.10
2016,07,20,07,15,13.10
2016,07,20,07,16,13.10
2016,07,20,07,17,13.10
2016,07,20,07,18,13.10
2016,07,20,07,19,13.20
2016,07,20,07,20,13.20
2016,07,20,07,21,13.20
2016,07,20,07,22,13.20
2016,07,20,07,23,13.20
2016,07,20,07,24,13.20
2016,07,20,07,25,13.30
2016,07,20,07,26,13.30
2016,07,20,07,27,13.30
2016,07,20,07,28,13.30
2016,07,20,07,29,13.30
2016,07,20,07,30,13.30
2016,07,20,07,31,13.30
2016,07,20,07,32,13.30
2016,07,20,07,33,13.30
2016,07,20,07,34,13.40
2016,07,20,07,35,13.40
2016,07,20,07,36,13.40
2016,07,20,07,37,13.40
2016,07,20,07,38,13.40
2016,07,20,07,39,13.40
2016,07,20,07,40,13.50
2016,07,20,07,41,13.50
2016,07,20,07,42,13.50
2016,07,20,07,43,13.50
2016,07,20,07,44,13.60
2016,07,20,07,45,13.60
2016,07,20,07,46,13.60
2016,07,20,07,47,13.60
2016,07,20,07,48,13.60
2016,07,20,07,49,13.70
2016,07,20,07,50,13.70
2016,07,20,07,51,13.70
2016,07,20,07,52,13.70
2016,07,20,07,53,13.70
2016,07,20,07,54,13.70
2016,07,20,07,55,13.80
2016,07,20,07,56,13.80
2016,07,20,07,57,13.80
2016,07,20,07,58,13.80
2016,07,20,07,59,13.80
2016,07,20,08,00,13.80
2016,07,20,08,01,13.80
2016,07,20,08,02,13.80
2016,07,20,08,03,13.80
2016,07,20,08,04,13.80
2016,07,20,08,05,13.90
2016,07,20,08,06,13.90
2016,07,20,08,07,13.90
2016,07,20,08,08,13.90
2016,07,20,08,09,13.90
2016,07,20,08,10,13.90
2016,07,20,08,11,13.90
2016,07,20,08,12,14.00
2016,07,20,08,13,14.00
2016,07,20,08,14,14.00
2016,07,20,08,15,14.00
2016,07,20,08,16,14.00
2016,07,20,08,17,14.00
2016,07,20,08,18,14.00
2016,07,20,08,19,14.00
2016,07,20,08,20,14.00
2016,07,20,08,21,14.10
2016,07,20,08,22,14.10
2016,07,20,08,23,14.10
2016,07,20,08,24,14.10
2016,07,20,08,25,14.10
2016,07,20,08,26,14.10
2016,07,20,08,27,14.10
2016,07,20,08,28,14.10
2016,07,20,08,29,14.10
2016,07,20,08,30,14.10
2016,07,20,08,31,14.10
2016,07,20,08,32,14.20
2016,07,20,08,33,14.20
2016,07,20,08,34,14.20
2016,07,20,08,35,14.20
2016,07,20,08,36,14.20
2016,07,20,08,37,14.20
2016,07,20,08,38,14.30
2016,07,20,08,39,14.30
2016,07,20,08,40,14.30
2016,07,20,08,41,14.30
2016,07,20,08,42,14.30
2016,07,20,08,43,14.40
2016,07,20,08,44,14.40
2016,07,20,08,45,14.40
2016,07,20,08,46,14.50
2016,07,20,08,47,14.50
2016,07,20,08,48,14.50
2016,07,20,08,49,14.60
2016,07,20,08,50,14.60
2016,07,20,08,51,14.60
2016,07,20,08,52,14.70
2016,07,20,08,53,14.70
2016,07,20,08,54,14.70
2016,07,20,08,55,14.80
2016,07,20,08,56,14.80
2016,07,20,08,57,14.80
2016,07,20,08,58,14.80
2016,07,20,08,59,14.80
2016,07,20,09,00,14.80
2016,07,20,09,01,14.80
2016,07,20,09,02,14.80
2016,07,20,09,03,14.90
2016,07,20,09,04,14.90
2016,07,20,09,05,14.90
2016,07,20,09,06,14.90
2016,07,20,09,07,15.00
2016,07,20,09,08,14.90
2016,07,20,09,09,15.00
2016,07,20,09,10,15.00
2016,07,20,09,11,15.00
2016,07,20,09,12,15.10
2016,07,20,09,13,15.10
2016,07,20,09,14,15.10
2016,07,20,09,15,15.10
2016,07,20,09,16,15.10
2016,07,20,09,17,15.10
2016,07,20,09,18,15.20
2016,07,20,09,19,15.20
2016,07,20,09,20,15.20
2016,07,20,09,21,15.30
2016,07,20,09,22,15.30
2016,07,20,09,23,15.30
2016,07,20,09,24,15.40
2016,07,20,09,25,15.40
2016,07,20,09,26,15.50
2016,07,20,09,27,15.60
2016,07,20,09,28,15.60
2016,07,20,09,29,15.70
2016,07,20,09,30,15.70
2016,07,20,09,31,15.70
2016,07,20,09,32,15.70
2016,07,20,09,33,15.70
2016,07,20,09,34,15.60
2016,07,20,09,35,15.60
2016,07,20,09,36,15.60
2016,07,20,09,37,15.60
2016,07,20,09,38,15.60
2016,07,20,09,39,15.60
2016,07,20,09,40,15.70
2016,07,20,09,41,15.70
2016,07,20,09,42,15.80
2016,07,20,09,43,15.80
2016,07,20,09,44,15.80
2016,07,20,09,45,15.80
2016,07,20,09,46,15.90
2016,07,20,09,47,15.90
2016,07,20,09,48,16.00
2016,07,20,09,49,16.00
2016,07,20,09,50,16.10
2016,07,20,09,51,16.10
2016,07,20,09,52,16.20
2016,07,20,09,53,16.20
2016,07,20,09,54,16.20
2016,07,20,09,55,16.30
2016,07,20,09,56,16.30
2016,07,20,09,57,16.30
2016,07,20,09,58,16.30
2016,07,20,09,59,16.40
2016,07,20,10,00,16.40
2016,07,20,10,01,16.40
2016,07,20,10,02,16.40
2016,07,20,10,03,16.40
2016,07,20,10,04,16.40
2016,07,20,10,05,16.40
2016,07,20,10,06,16.40
2016,07,20,10,07,16.50
2016,07,20,10,08,16.50
2016,07,20,10,09,16.60
2016,07,20,10,10,16.60
2016,07,20,10,11,16.60
2016,07,20,10,12,16.70
2016,07,20,10,13,16.70
2016,07,20,10,14,16.80
2016,07,20,10,15,16.80
2016,07,20,10,16,16.80
2016,07,20,10,17,16.80
2016,07,20,10,18,16.80
2016,07,20,10,19,16.80
2016,07,20,10,20,16.80
2016,07,20,10,21,16.80
2016,07,20,10,22,16.80
2016,07,20,10,23,16.90
2016,07,20,10,24,16.90
2016,07,20,10,25,17.00
2016,07,20,10,26,17.00
2016,07,20,10,27,17.10
2016,07,20,10,28,17.20
2016,07,20,10,29,17.30
2016,07,20,10,30,17.30
2016,07,20,10,31,17.40
2016,07,20,10,32,17.50
2016,07,20,10,33,17.60
2016,07,20,10,34,17.60
2016,07,20,10,35,17.70
2016,07,20,10,36,17.80
2016,07,20,10,37,17.80
2016,07,20,10,38,17.80
2016,07,20,10,39,17.80
2016,07,20,10,40,17.80
2016,07,20,10,41,17.80
2016,07,20,10,42,17.90
2016,07,20,10,43,18.00
2016,07,20,10,44,18.00
2016,07,20,10,45,18.10
2016,07,20,10,46,18.10
2016,07,20,10,47,18.10
2016,07,20,10,48,18.10
2016,07,20,10,49,18.10
2016,07,20,10,50,18.10
2016,07,20,10,51,18.10
2016,07,20,10,52,18.20
2016,07,20,10,53,18.20
2016,07,20,10,54,18.30
2016,07,20,10,55,18.30
2016,07,20,10,56,18.30
2016,07,20,10,57,18.30
2016,07,20,10,58,18.50
2016,07,20,10,59,18.60
2016,07,20,11,00,18.70
2016,07,20,11,01,18.80
2016,07,20,11,02,18.90
2016,07,20,11,03,19.00
2016,07,20,11,04,19.10
2016,07,20,11,05,19.20
2016,07,20,11,06,19.10
2016,07,20,11,07,19.10
2016,07,20,11,08,19.10
2016,07,20,11,09,19.10
2016,07,20,11,10,19.10
2016,07,20,11,11,19.10
2016,07,20,11,12,19.30
2016,07,20,11,13,19.40
2016,07,20,11,14,19.40
2016,07,20,11,15,19.40
2016,07,20,11,16,19.40
2016,07,20,11,17,19.40
2016,07,20,11,18,19.40
2016,07,20,11,19,19.40
2016,07,20,11,20,19.50
2016,07,20,11,21,19.60
2016,07,20,11,22,19.60
2016,07,20,11,23,19.60
2016,07,20,11,24,19.60
2016,07,20,11,25,19.60
2016,07,20,11,26,19.70
2016,07,20,11,27,19.80
2016,07,20,11,28,19.80
2016,07,20,11,29,19.80
2016,07,20,11,30,19.80
2016,07,20,11,31,19.80
2016,07,20,11,32,19.80
2016,07,20,11,33,19.90
2016,07,20,11,34,20.00
2016,07,20,11,35,20.20
2016,07,20,11,36,20.30
2016,07,20,11,37,20.30
2016,07,20,11,38,20.40
2016,07,20,11,39,20.50
2016,07,20,11,40,20.60
2016,07,20,11,41,20.70
2016,07,20,11,42,20.70
2016,07,20,11,43,20.70
2016,07,20,11,44,20.70
2016,07,20,11,45,20.70
2016,07,20,11,46,20.80
2016,07,20,11,47,20.80
2016,07,20,11,48,20.80
2016,07,20,11,49,20.90
2016,07,20,11,50,20.90
2016,07,20,11,51,20.90
2016,07,20,11,52,20.90
2016,07,20,11,53,20.90
2016,07,20,11,54,20.90
2016,07,20,11,55,20.90
2016,07,20,11,56,20.90
2016,07,20,11,57,21.00
2016,07,20,11,58,21.20
2016,07,20,11,59,21.20
2016,07,20,12,00,21.30
2016,07,20,12,01,21.40
2016,07,20,12,02,21.60
2016,07,20,12,03,21.70
2016,07,20,12,04,21.80
2016,07,20,12,05,21.80
2016,07,20,12,06,21.70
2016,07,20,12,07,21.70
2016,07,20,12,08,21.70
2016,07,20,12,09,21.70
2016,07,20,12,10,21.80
2016,07,20,12,11,21.90
2016,07,20,12,12,22.00
2016,07,20,12,13,22.10
2016,07,20,12,14,22.10
2016,07,20,12,15,22.10
2016,07,20,12,16,22.20
2016,07,20,12,17,22.20
2016,07,20,12,18,22.20
2016,07,20,12,19,22.20
2016,07,20,12,20,22.20
2016,07,20,12,21,22.10
2016,07,20,12,22,22.10
2016,07,20,12,23,22.20
2016,07,20,12,24,22.30
2016,07,20,12,25,22.30
2016,07,20,12,26,22.30
2016,07,20,12,27,22.30
2016,07,20,12,28,22.30
2016,07,20,12,29,22.30
2016,07,20,12,30,22.30
2016,07,20,12,31,22.40
2016,07,20,12,32,22.40
2016,07,20,12,33,22.50
2016,07,20,12,34,22.50
2016,07,20,12,35,22.60
2016,07,20,12,36,22.60
2016,07,20,12,37,22.60
2016,07,20,12,38,22.60
2016,07,20,12,39,22.60
2016,07,20,12,40,22.50
2016,07,20,12,41,22.50
2016,07,20,12,42,22.50
2016,07,20,12,43,22.50
2016,07,20,12,44,22.40
2016,07,20,12,45,22.40
2016,07,20,12,46,22.30
2016,07,20,12,47,22.20
2016,07,20,12,48,22.20
2016,07,20,12,49,22.20
2016,07,20,12,50,22.20
2016,07,20,12,51,22.20
2016,07,20,12,52,22.20
2016,07,20,12,53,22.20
2016,07,20,12,54,22.30
2016,07,20,12,55,22.30
2016,07,20,12,56,22.40
2016,07,20,12,57,22.50
2016,07,20,12,58,22.50
2016,07,20,12,59,22.60
2016,07,20,13,00,22.60
2016,07,20,13,01,22.70
2016,07,20,13,02,22.80
2016,07,20,13,03,22.80
2016,07,20,13,04,22.90
2016,07,20,13,05,22.90
2016,07,20,13,06,22.90
2016,07,20,13,07,22.80
2016,07,20,13,08,22.80
2016,07,20,13,09,22.80
2016,07,20,13,10,22.80
2016,07,20,13,11,22.80
2016,07,20,13,12,22.80
2016,07,20,13,13,22.90
2016,07,20,13,14,22.80
2016,07,20,13,15,22.80
2016,07,20,13,16,22.80
2016,07,20,13,17,22.80
2016,07,20,13,18,22.80
2016,07,20,13,19,22.80
2016,07,20,13,20,22.80
2016,07,20,13,21,22.80
2016,07,20,13,22,22.70
2016,07,20,13,23,22.70
2016,07,20,13,24,22.80
2016,07,20,13,25,22.80
2016,07,20,13,26,22.90
2016,07,20,13,27,22.90
2016,07,20,13,28,22.90
2016,07,20,13,29,23.00
2016,07,20,13,30,23.00
2016,07,20,13,31,23.10
2016,07,20,13,32,23.20
2016,07,20,13,33,23.30
2016,07,20,13,34,23.40
2016,07,20,13,35,23.60
2016,07,20,13,36,23.70
2016,07,20,13,37,23.80
2016,07,20,13,38,23.80
2016,07,20,13,39,23.80
2016,07,20,13,40,23.80
2016,07,20,13,41,23.80
2016,07,20,13,42,23.90
2016,07,20,13,43,24.00
2016,07,20,13,44,24.10
2016,07,20,13,45,24.10
2016,07,20,13,46,24.10
2016,07,20,13,47,24.10
2016,07,20,13,48,24.10
2016,07,20,13,49,24.20
2016,07,20,13,50,24.20
2016,07,20,13,51,24.30
2016,07,20,13,52,24.30
2016,07,20,13,53,24.50
2016,07,20,13,54,24.70
2016,07,20,13,55,24.70
2016,07,20,13,56,24.60
2016,07,20,13,57,24.40
2016,07,20,13,58,24.30
2016,07,20,13,59,24.30
2016,07,20,14,00,24.20
2016,07,20,14,01,24.20
2016,07,20,14,02,24.20
2016,07,20,14,03,24.20
2016,07,20,14,04,24.20
2016,07,20,14,05,24.20
2016,07,20,14,06,24.30
2016,07,20,14,07,24.30
2016,07,20,14,08,24.30
2016,07,20,14,09,24.40
2016,07,20,14,10,24.50
2016,07,20,14,11,24.60
2016,07,20,14,12,24.60
2016,07,20,14,13,24.60
2016,07,20,14,14,24.60
2016,07,20,14,15,24.50
2016,07,20,14,16,24.50
2016,07,20,14,17,24.50
2016,07,20,14,18,24.60
2016,07,20,14,19,24.60
2016,07,20,14,20,24.70
2016,07,20,14,21,24.80
2016,07,20,14,22,24.80
2016,07,20,14,23,24.80
2016,07,20,14,24,24.80
2016,07,20,14,25,24.80
2016,07,20,14,26,24.70
2016,07,20,14,27,24.70
2016,07,20,14,28,24.70
2016,07,20,14,29,24.70
2016,07,20,14,30,24.70
2016,07,20,14,31,24.70
2016,07,20,14,32,24.80
2016,07,20,14,33,24.90
2016,07,20,14,34,25.00
2016,07,20,14,35,25.10
2016,07,20,14,36,25.20
2016,07,20,14,37,25.30
2016,07,20,14,38,25.40
2016,07,20,14,39,25.30
2016,07,20,14,40,25.30
2016,07,20,14,41,25.30
2016,07,20,14,42,25.30
2016,07,20,14,43,25.30
2016,07,20,14,44,25.20
2016,07,20,14,45,25.20
2016,07,20,14,46,25.10
2016,07,20,14,47,25.10
2016,07,20,14,48,25.00
2016,07,20,14,49,25.00
2016,07,20,14,50,24.90
2016,07,20,14,51,24.80
2016,07,20,14,52,24.80
2016,07,20,14,53,24.80
2016,07,20,14,54,24.90
2016,07,20,14,55,24.90
2016,07,20,14,56,24.90
2016,07,20,14,57,24.90
2016,07,20,14,58,24.80
2016,07,20,14,59,24.70
2016,07,20,15,00,24.70
2016,07,20,15,01,24.70
2016,07,20,15,02,24.80
2016,07,20,15,03,24.80
2016,07,20,15,04,24.80
2016,07,20,15,05,24.80
2016,07,20,15,06,24.80
2016,07,20,15,07,24.80
2016,07,20,15,08,24.70
2016,07,20,15,09,24.70
2016,07,20,15,10,24.70
2016,07,20,15,11,24.70
2016,07,20,15,12,24.60
2016,07,20,15,13,24.50
2016,07,20,15,14,24.40
2016,07,20,15,15,24.40
2016,07,20,15,16,24.40
2016,07,20,15,17,24.40
2016,07,20,15,18,24.40
2016,07,20,15,19,24.40
2016,07,20,15,20,24.40
2016,07,20,15,21,24.50
2016,07,20,15,22,24.50
2016,07,20,15,23,24.60
2016,07,20,15,24,24.50
2016,07,20,15,25,24.40
2016,07,20,15,26,24.30
2016,07,20,15,27,24.30
2016,07,20,15,28,24.30
2016,07,20,15,29,24.30
2016,07,20,15,30,24.30
2016,07,20,15,31,24.30
2016,07,20,15,32,24.20
2016,07,20,15,33,24.10
2016,07,20,15,34,24.00
2016,07,20,15,35,23.90
2016,07,20,15,36,23.80
2016,07,20,15,37,23.70
2016,07,20,15,38,23.70
2016,07,20,15,39,23.70
2016,07,20,15,40,23.70
2016,07,20,15,41,23.70
2016,07,20,15,42,23.70
2016,07,20,15,43,23.70
2016,07,20,15,44,23.70
2016,07,20,15,45,23.70
2016,07,20,15,46,23.60
2016,07,20,15,47,23.50
2016,07,20,15,48,23.50
2016,07,20,15,49,23.40
2016,07,20,15,50,23.40
2016,07,20,15,51,23.40
2016,07,20,15,52,23.30
2016,07,20,15,53,23.30
2016,07,20,15,54,23.20
2016,07,20,15,55,23.20
2016,07,20,15,56,23.20
2016,07,20,15,57,23.20
2016,07,20,15,58,23.20
2016,07,20,15,59,23.20
2016,07,20,16,00,23.20
2016,07,20,16,01,23.20
2016,07,20,16,02,23.20
2016,07,20,16,03,23.10
2016,07,20,16,04,23.10
2016,07,20,16,05,23.00
2016,07,20,16,06,23.00
2016,07,20,16,07,22.90
2016,07,20,16,08,22.90
2016,07,20,16,09,22.90
2016,07,20,16,10,22.90
2016,07,20,16,11,22.90
2016,07,20,16,12,22.90
2016,07,20,16,13,22.90
2016,07,20,16,14,22.80
2016,07,20,16,15,22.80
2016,07,20,16,16,22.80
2016,07,20,16,17,22.80
2016,07,20,16,18,22.70
2016,07,20,16,19,22.70
2016,07,20,16,20,22.60
2016,07,20,16,21,22.60
2016,07,20,16,22,22.50
2016,07,20,16,23,22.50
2016,07,20,16,24,22.40
2016,07,20,16,25,22.40
2016,07,20,16,26,22.40
2016,07,20,16,27,22.30
2016,07,20,16,28,22.30
2016,07,20,16,29,22.30
2016,07,20,16,30,22.20
2016,07,20,16,31,22.20
2016,07,20,16,32,22.10
2016,07,20,16,33,22.00
2016,07,20,16,34,21.90
2016,07,20,16,35,21.90
2016,07,20,16,36,21.90
2016,07,20,16,37,21.90
2016,07,20,16,38,21.90
2016,07,20,16,39,21.90
2016,07,20,16,40,21.90
2016,07,20,16,41,21.90
2016,07,20,16,42,21.90
2016,07,20,16,43,21.80
2016,07,20,16,44,21.80
2016,07,20,16,45,21.80
2016,07,20,16,46,21.80
2016,07,20,16,47,21.80
2016,07,20,16,48,21.80
2016,07,20,16,49,21.70
2016,07,20,16,50,21.70
2016,07,20,16,51,21.60
2016,07,20,16,52,21.50
2016,07,20,16,53,21.50
2016,07,20,16,54,21.30
2016,07,20,16,55,21.20
2016,07,20,16,56,21.20
2016,07,20,16,57,21.10
2016,07,20,16,58,21.00
2016,07,20,16,59,21.00
2016,07,20,17,00,20.90
2016,07,20,17,01,20.80
2016,07,20,17,02,20.80
2016,07,20,17,03,20.80
2016,07,20,17,04,20.80
2016,07,20,17,05,20.80
2016,07,20,17,06,20.80
2016,07,20,17,07,20.80
2016,07,20,17,08,20.80
2016,07,20,17,09,20.80
2016,07,20,17,10,20.90
2016,07,20,17,11,20.90
2016,07,20,17,12,20.90
2016,07,20,17,13,20.90
2016,07,20,17,14,20.90
2016,07,20,17,15,20.90
2016,07,20,17,16,20.80
2016,07,20,17,17,20.80
2016,07,20,17,18,20.80
2016,07,20,17,19,20.70
2016,07,20,17,20,20.60
2016,07,20,17,21,20.60
2016,07,20,17,22,20.50